When you browse on this site, cookies collect data to enhance your experience and personalize the content and advertising you see.
Visit our Privacy Policy to learn more. By continuing to use the site, you agree to this use of cookies and data.
  • In Hungary
  • List of Countries
  • For 7 days
  • Water Temperature
  • Satellite Maps
  • Weather Map
  • News
  • Weather Widgets
  • user-avatar
    Login

    Hourly Weather Iraklion

    Today, 22 January, Tuesday

    Time Temperature Precipitation Wind Pressure Humidity
    00:00 +12°C° 0 mm 1 mps 756 mmHg 90%
    01:00 +12°C° 0 mm 1 mps 756 mmHg 90%
    02:00 +11°C° 0 mm 1 mps 756 mmHg 91%
    03:00 +11°C° 0 mm 1 mps 756 mmHg 91%
    04:00 +10°C° 0 mm 2 mps 756 mmHg 91%
    05:00 +10°C° 0 mm 2 mps 756 mmHg 91%
    06:00 +10°C° 0 mm 2 mps 756 mmHg 90%
    07:00 +10°C° 0 mm 2 mps 756 mmHg 90%
    08:00 +10°C° 0 mm 2 mps 756 mmHg 91%
    09:00 +13°C° 0 mm 2 mps 756 mmHg 82%
    10:00 +14°C° 0 mm 2 mps 756 mmHg 72%
    11:00 +16°C° 0 mm 2 mps 756 mmHg 63%
    12:00 +16°C° 0 mm 2 mps 756 mmHg 61%
    13:00 +17°C° 0 mm 2 mps 756 mmHg 60%
    14:00 +17°C° 0 mm 2 mps 755 mmHg 58%
    15:00 +16°C° 0 mm 3 mps 755 mmHg 64%
    16:00 +16°C° 0 mm 3 mps 755 mmHg 70%
    17:00 +14°C° 0 mm 3 mps 754 mmHg 75%
    18:00 +13°C° 0 mm 4 mps 754 mmHg 78%
    19:00 +12°C° 0 mm 4 mps 754 mmHg 81%
    20:00 +12°C° 0 mm 5 mps 754 mmHg 83%
    21:00 +12°C° 0 mm 5 mps 754 mmHg 84%
    22:00 +12°C° 0 mm 5 mps 754 mmHg 85%
    23:00 +12°C° 0 mm 5 mps 754 mmHg 85%

    Tomorrow, 23 January, Wednesday

    Time Temperature Precipitation Wind Pressure Humidity
    00:00 +12°C° 0 mm 5 mps 753 mmHg 85%
    01:00 +12°C° 0 mm 5 mps 753 mmHg 84%
    02:00 +12°C° 0 mm 5 mps 753 mmHg 84%
    03:00 +12°C° 0 mm 5 mps 752 mmHg 83%
    04:00 +12°C° 0 mm 5 mps 752 mmHg 82%
    05:00 +12°C° 0 mm 5 mps 751 mmHg 81%
    06:00 +12°C° 0 mm 5 mps 751 mmHg 82%
    07:00 +12°C° 0 mm 5 mps 751 mmHg 82%
    08:00 +13°C° 0 mm 5 mps 751 mmHg 82%
    09:00 +14°C° 0 mm 5 mps 751 mmHg 80%
    10:00 +14°C° 0 mm 6 mps 751 mmHg 77%
    11:00 +15°C° 0 mm 6 mps 751 mmHg 75%
    12:00 +15°C° 0.1 mm 6 mps 750 mmHg 74%
    13:00 +16°C° 0.1 mm 7 mps 749 mmHg 73%
    14:00 +16°C° 0.1 mm 7 mps 748 mmHg 72%
    15:00 +15°C° 0 mm 7 mps 747 mmHg 75%
    16:00 +14°C° 0 mm 7 mps 747 mmHg 78%
    17:00 +14°C° 0 mm 6 mps 746 mmHg 82%
    18:00 +14°C° 0.1 mm 7 mps 746 mmHg 83%
    19:00 +12°C° 0.1 mm 7 mps 745 mmHg 84%
    20:00 +12°C° 0.1 mm 7 mps 745 mmHg 85%
    21:00 +12°C° 0.2 mm 7 mps 744 mmHg 84%
    22:00 +12°C° 0.2 mm 7 mps 743 mmHg 83%
    23:00 +12°C° 0.2 mm 7 mps 743 mmHg 81%

    Day after tomorrow, 24 January, Thursday

    Time Temperature Precipitation Wind Pressure Humidity
    00:00 +12°C° 0 mm 7 mps 742 mmHg 80%
    01:00 +12°C° 0 mm 7 mps 741 mmHg 80%
    02:00 +12°C° 0 mm 7 mps 740 mmHg 79%
    03:00 +12°C° 0.1 mm 7 mps 740 mmHg 80%
    04:00 +11°C° 0.1 mm 7 mps 739 mmHg 82%
    05:00 +11°C° 0.1 mm 8 mps 739 mmHg 84%
    06:00 +11°C° 0.1 mm 7 mps 739 mmHg 86%
    07:00 +11°C° 0.1 mm 7 mps 739 mmHg 87%
    08:00 +11°C° 0.1 mm 7 mps 739 mmHg 89%
    09:00 +11°C° 0.6 mm 7 mps 740 mmHg 85%
    10:00 +11°C° 0.6 mm 7 mps 741 mmHg 81%
    11:00 +12°C° 0.6 mm 8 mps 741 mmHg 77%
    12:00 +12°C° 0 mm 8 mps 742 mmHg 74%
    13:00 +13°C° 0 mm 8 mps 742 mmHg 71%
    14:00 +13°C° 0 mm 8 mps 742 mmHg 69%
    15:00 +14°C° 0 mm 7 mps 743 mmHg 71%
    16:00 +12°C° 0 mm 7 mps 743 mmHg 72%
    17:00 +13°C° 0 mm 6 mps 743 mmHg 74%
    18:00 +11°C° 0 mm 6 mps 744 mmHg 76%
    19:00 +11°C° 0 mm 7 mps 744 mmHg 78%
    20:00 +11°C° 0 mm 7 mps 745 mmHg 79%
    21:00 +11°C° 0 mm 7 mps 745 mmHg 78%
    22:00 +11°C° 0 mm 6 mps 745 mmHg 77%
    23:00 +11°C° 0 mm 6 mps 746 mmHg 76%

    25 January, Friday

    Time Temperature Precipitation Wind Pressure Humidity
    00:00 +11°C° 0 mm 6 mps 745 mmHg 74%
    01:00 +11°C° 0 mm 7 mps 745 mmHg 72%
    02:00 +11°C° 0 mm 7 mps 744 mmHg 70%
    03:00 +11°C° 0.1 mm 7 mps 744 mmHg 70%
    04:00 +11°C° 0.1 mm 8 mps 743 mmHg 70%
    05:00 +12°C° 0.1 mm 9 mps 743 mmHg 70%
    06:00 +12°C° 0.2 mm 9 mps 742 mmHg 70%
    07:00 +12°C° 0.2 mm 10 mps 742 mmHg 71%
    08:00 +12°C° 0.2 mm 11 mps 742 mmHg 71%
    09:00 +12°C° 1.3 mm 10 mps 742 mmHg 76%
    10:00 +11°C° 1.3 mm 9 mps 742 mmHg 80%
    11:00 +11°C° 1.3 mm 9 mps 742 mmHg 85%
    12:00 +12°C° 0.9 mm 10 mps 742 mmHg 77%
    13:00 +12°C° 0.9 mm 12 mps 742 mmHg 70%
    14:00 +13°C° 0.9 mm 13 mps 741 mmHg 63%
    15:00 +12°C° 0.1 mm 13 mps 741 mmHg 64%
    16:00 +10°C° 0.1 mm 12 mps 741 mmHg 65%
    17:00 +11°C° 0.1 mm 11 mps 741 mmHg 67%
    18:00 +10°C° 0 mm 12 mps 741 mmHg 66%
    19:00 +10°C° 0 mm 12 mps 741 mmHg 64%
    20:00 +10°C° 0 mm 13 mps 741 mmHg 63%
    21:00 +9°C° 0.4 mm 12 mps 741 mmHg 69%
    22:00 +9°C° 0.4 mm 10 mps 741 mmHg 74%
    23:00 +10°C° 0.4 mm 9 mps 741 mmHg 80%

    26 January, Saturday

    Time Temperature Precipitation Wind Pressure Humidity
    00:00 +10°C° 0 mm 9 mps 741 mmHg 81%
    01:00 +10°C° 0 mm 9 mps 741 mmHg 82%
    02:00 +10°C° 0 mm 8 mps 741 mmHg 82%
    03:00 +10°C° 0 mm 8 mps 741 mmHg 83%
    04:00 +10°C° 0 mm 7 mps 741 mmHg 83%
    05:00 +10°C° 0 mm 7 mps 741 mmHg 83%
    06:00 +10°C° 0 mm 6 mps 741 mmHg 84%
    07:00 +9°C° 0 mm 5 mps 741 mmHg 84%
    08:00 +9°C° 0 mm 5 mps 742 mmHg 84%
    09:00 +12°C° 0 mm 5 mps 742 mmHg 79%
    10:00 +13°C° 0 mm 4 mps 743 mmHg 74%
    11:00 +14°C° 0 mm 4 mps 743 mmHg 69%
    12:00 +14°C° 0.1 mm 4 mps 743 mmHg 68%
    13:00 +14°C° 0.1 mm 4 mps 743 mmHg 67%
    14:00 +14°C° 0.1 mm 4 mps 743 mmHg 66%
    15:00 +14°C° 0.4 mm 4 mps 743 mmHg 70%
    16:00 +13°C° 0.4 mm 4 mps 743 mmHg 73%
    17:00 +12°C° 0.4 mm 4 mps 744 mmHg 77%
    18:00 +10°C° 0.2 mm 5 mps 744 mmHg 80%
    19:00 +10°C° 0.2 mm 5 mps 744 mmHg 82%
    20:00 +9°C° 0.2 mm 5 mps 744 mmHg 85%
    21:00 +9°C° 0 mm 6 mps 744 mmHg 84%
    22:00 +9°C° 0 mm 6 mps 745 mmHg 82%
    23:00 +8°C° 0 mm 6 mps 745 mmHg 81%

    27 January, Sunday

    Time Temperature Precipitation Wind Pressure Humidity
    00:00 +9°C° 0.2 mm 6 mps 744 mmHg 84%
    01:00 +9°C° 0.2 mm 6 mps 744 mmHg 87%
    02:00 +9°C° 0.2 mm 6 mps 744 mmHg 90%
    03:00 +9°C° 0.6 mm 6 mps 743 mmHg 90%
    04:00 +9°C° 0.6 mm 5 mps 743 mmHg 90%
    05:00 +9°C° 0.6 mm 5 mps 742 mmHg 90%
    06:00 +10°C° 0.5 mm 4 mps 743 mmHg 90%
    07:00 +10°C° 0.5 mm 4 mps 743 mmHg 89%
    08:00 +10°C° 0.5 mm 3 mps 743 mmHg 89%
    09:00 +10°C° 0.9 mm 4 mps 743 mmHg 86%
    10:00 +10°C° 0.9 mm 5 mps 744 mmHg 82%
    11:00 +11°C° 0.9 mm 7 mps 745 mmHg 79%
    12:00 +11°C° 0 mm 7 mps 745 mmHg 74%
    13:00 +12°C° 0 mm 7 mps 745 mmHg 70%
    14:00 +13°C° 0 mm 8 mps 746 mmHg 65%
    15:00 +12°C° 0 mm 7 mps 747 mmHg 68%
    16:00 +12°C° 0 mm 7 mps 747 mmHg 71%
    17:00 +11°C° 0 mm 7 mps 748 mmHg 74%
    18:00 +10°C° 0 mm 6 mps 749 mmHg 75%
    19:00 +9°C° 0 mm 5 mps 749 mmHg 76%
    20:00 +8°C° 0 mm 4 mps 750 mmHg 77%
    21:00 +8°C° 0 mm 4 mps 750 mmHg 77%
    22:00 +8°C° 0 mm 4 mps 751 mmHg 78%
    23:00 +9°C° 0 mm 3 mps 751 mmHg 78%
    Show more